Hlavní strana
METAR-TAF:

METAR-TAF

Letiště :

Delaware, Ohio, Spojené státy americké

zeměpisná šířka: 40-16-47N, zeměpisná délka: 83-06-53W, výška: 288 m

Aktuální stav počasí

Zpráva byla vytvořena před 19 minutami, v 03:55 UTC
Západoseverozápadní vítr 4 kt
Teplota 18°C
Vlhkost vzduchu 88%
Tlak 1018 hPa
Viditelnost: 16.1 km
Jasno

METAR: KDLZ 270355Z AUTO 30004KT 10SM CLR 18/16 A3005 RMK AO2

Čas: 00:14 (04:14 UTC)


TAF: chybějící

Stav a předpovědi počasí z více než 4 000 letišť (zprávy METAR a TAF).

Červené a žluté tečky na mapě představují dostupné meteorologické stanice.

Když kurzor umístíte na tečku, zobrazí se název stanice.

Pak kliknutím zobrazíte stav a předpověď počasí.

Chcete-li změnit mapu, kliknutím na zelené tlačítko se znaménkem +mapu přiblížíte, kliknutím na zelené tlačítko se znaménkem – mapu oddálíte a kliknutím na zelené šipky přejdete na sousední mapy.


METAR-TAF: